,Output(kWh),Demand(kWh),Import(kWh),Export(kWh),HW(kWh),HWPV(kWh),Output(kWh/d),Demand(kWh/d),Import(kWh/d),Export(kWh/d),HW(kWh/d),HWPV(kWh/d)
01/12/2015,0.015,0.017,0.005,0.003,0.001,0.001,0.015,0.017,0.005,0.003,0.001,0.001
02/12/2015,2.397,4.566,3.483,1.313,0.592,0.368,2.382,4.549,3.478,1.31,0.591,0.367
03/12/2015,10.57,31.83,26.71,5.45,2.346,1.57,8.173,27.264,23.227,4.137,1.754,1.202
04/12/2015,18.2,59.35,50.34,9.195,3.907,2.586,7.63,27.52,23.63,3.745,1.561,1.016
05/12/2015,27.57,91.34,77.06,13.29,6.169,4.285,9.37,31.99,26.72,4.095,2.262,1.699
06/12/2015,35.28,122.05,103.64,16.87,7.69,5.264,7.71,30.71,26.58,3.58,1.521,0.979
07/12/2015,43.12,150.67,128.17,20.61,9.282,6.297,7.84,28.62,24.53,3.74,1.592,1.033
08/12/2015,51.76,177.42,150.44,24.77,11.42,7.865,8.64,26.75,22.27,4.16,2.138,1.568
09/12/2015,60.37,207.57,175.82,28.61,13.28,9.166,8.61,30.15,25.38,3.84,1.86,1.301
10/12/2015,69.68,239.78,202.9,32.79,15.7,11.06,9.31,32.21,27.08,4.18,2.42,1.894
11/12/2015,78.06,270.51,229.26,36.81,17.59,12.42,8.38,30.73,26.36,4.02,1.89,1.36
12/12/2015,85.93,298.91,253.49,40.51,19.15,13.41,7.87,28.4,24.23,3.7,1.56,0.99
13/12/2015,93.86,331.67,282.09,44.27,20.76,14.46,7.93,32.76,28.6,3.76,1.61,1.05
14/12/2015,101.72,359.83,306.32,48.2,22.51,15.63,7.86,28.16,24.23,3.93,1.75,1.17
15/12/2015,109.73,390.86,333.02,51.89,24.11,16.66,8.01,31.03,26.7,3.69,1.6,1.03
16/12/2015,117.17,421.46,359.59,55.3,25.58,17.57,7.44,30.6,26.57,3.41,1.47,0.91
17/12/2015,125.16,448.03,382.2,59.32,27.45,18.8,7.99,26.57,22.61,4.02,1.87,1.23
18/12/2015,133.14,471.77,402.19,63.51,29.32,20.05,7.98,23.74,19.99,4.19,1.87,1.25
19/12/2015,141.33,500.43,426.53,67.36,31,21.12,8.19,28.66,24.34,3.85,1.68,1.07
20/12/2015,149.61,530.95,452.43,71.04,32.61,22.15,8.28,30.52,25.9,3.68,1.61,1.03
21/12/2015,157.83,556.31,473.66,75.13,34.47,23.37,8.22,25.36,21.23,4.09,1.86,1.22
22/12/2015,165.56,586.97,500.21,78.77,36.09,24.39,7.73,30.66,26.55,3.64,1.62,1.02
23/12/2015,173.35,616.62,525.64,82.47,37.73,25.41,7.79,29.65,25.43,3.7,1.64,1.02
24/12/2015,182.45,646.68,550.77,86.7,39.92,27.03,9.1,30.06,25.13,4.23,2.19,1.62
25/12/2015,190.77,677.41,577.03,90.56,41.74,28.24,8.32,30.73,26.26,3.86,1.82,1.21
26/12/2015,198.34,712.83,608.15,93.79,43.21,29.12,7.57,35.42,31.12,3.23,1.47,0.88
27/12/2015,206.07,743.13,634.19,97.29,44.79,30.05,7.73,30.3,26.04,3.5,1.58,0.93
28/12/2015,213.2,770.58,657.94,100.73,46.4,31.01,7.13,27.45,23.75,3.44,1.61,0.96
29/12/2015,222.04,802.16,684.53,104.58,48.43,32.42,8.84,31.58,26.59,3.85,2.03,1.41
30/12/2015,230.75,834.05,711.36,108.23,50.3,33.67,8.71,31.89,26.83,3.65,1.87,1.25
31/12/2015,238.31,862.28,735.7,111.9,52,34.69,7.56,28.23,24.34,3.67,1.7,1.02
01/01/2016,247.23,894.04,762.49,115.86,53.97,36.01,8.92,31.76,26.79,3.96,1.97,1.32
02/01/2016,254.9,928.7,792.95,119.34,55.59,36.99,7.67,34.66,30.46,3.48,1.62,0.98
03/01/2016,262.46,960.76,820.83,122.74,57.13,37.9,7.56,32.06,27.88,3.4,1.54,0.91
04/01/2016,269.78,990.98,847.23,126.26,58.82,38.92,7.32,30.22,26.4,3.52,1.69,1.02
05/01/2016,278.58,1023,874.35,130.17,60.97,40.44,8.8,32.02,27.12,3.91,2.15,1.52
06/01/2016,287.04,1058,904.39,133.77,62.69,41.54,8.46,35,30.04,3.6,1.72,1.1
07/01/2016,294.66,1092,934.13,137.14,64.15,42.4,7.62,34,29.74,3.37,1.46,0.86
08/01/2016,303.49,1126,963.09,140.86,66.09,43.74,8.83,34,28.96,3.72,1.94,1.34
09/01/2016,312.45,1161,993.02,144.63,67.92,45,8.96,35,29.93,3.77,1.83,1.26
10/01/2016,320.36,1192,1020,148.42,69.66,46.12,7.91,31,26.98,3.79,1.74,1.12
11/01/2016,329.43,1225,1047,152.48,71.66,47.53,9.07,33,27,4.06,2,1.41
12/01/2016,337.95,1262,1080,155.85,73.19,48.51,8.52,37,33,3.37,1.53,0.98
13/01/2016,346.07,1296,1109,159.57,74.8,49.54,8.12,34,29,3.72,1.61,1.03
14/01/2016,355.05,1331,1139,163.54,76.56,50.74,8.98,35,30,3.97,1.76,1.2
15/01/2016,363.56,1366,1169,167.31,78.21,51.83,8.51,35,30,3.77,1.65,1.09
16/01/2016,373.36,1401,1199,171.56,80.83,53.9,9.8,35,30,4.25,2.62,2.07
17/01/2016,383.04,1439,1231,175.33,82.58,55.11,9.68,38,32,3.77,1.75,1.21
18/01/2016,391.13,1473,1261,179.13,84.22,56.16,8.09,34,30,3.8,1.64,1.05
19/01/2016,399.75,1508,1290,183.13,85.98,57.33,8.62,35,29,4,1.76,1.17
20/01/2016,409.73,1549,1325,186.8,88.19,59.04,9.98,41,35,3.67,2.21,1.71
21/01/2016,420.4,1590,1360,190.65,90.61,60.96,10.67,41,35,3.85,2.42,1.92
22/01/2016,429.85,1629,1393,194.58,92.58,62.4,9.45,39,33,3.93,1.97,1.44
23/01/2016,438.17,1663,1422,198.35,94.22,63.48,8.32,34,29,3.77,1.64,1.08
24/01/2016,446.93,1698,1451,202.2,95.84,64.53,8.76,35,29,3.85,1.62,1.05
25/01/2016,455.4,1727,1476,206.37,97.92,66,8.47,29,25,4.17,2.08,1.47
26/01/2016,464.04,1754,1499,210.73,100.05,67.53,8.64,27,23,4.36,2.13,1.53
27/01/2016,471.86,1783,1524,214.72,101.9,68.76,7.82,29,25,3.99,1.85,1.23
28/01/2016,479.67,1811,1547,218.63,103.67,69.91,7.81,28,23,3.91,1.77,1.15
29/01/2016,490.45,1845,1575,222.91,106.56,72.31,10.78,34,28,4.28,2.89,2.4
30/01/2016,498.3,1877,1603,226.45,108.01,73.22,7.85,32,28,3.54,1.45,0.91
31/01/2016,508.98,1910,1629,230.88,111.6,76.26,10.68,33,26,4.43,3.59,3.04
01/02/2016,517.14,1950,1664,233.92,112.85,77.04,8.16,40,35,3.04,1.25,0.78
02/02/2016,525.88,1981,1691,237.84,114.51,78.14,8.74,31,27,3.92,1.66,1.1
03/02/2016,536.96,2015,1718,242.24,117.85,80.94,11.08,34,27,4.4,3.34,2.8
04/02/2016,546.68,2051,1748,246.24,119.9,82.45,9.72,36,30,4,2.05,1.51
05/02/2016,555.63,2086,1778,250.09,121.5,83.51,8.95,35,30,3.85,1.6,1.06
06/02/2016,564.09,2117,1804,254.08,123.18,84.65,8.46,31,26,3.99,1.68,1.14
07/02/2016,572.15,2150,1832,257.73,124.65,85.58,8.06,33,28,3.65,1.47,0.93
08/02/2016,582.63,2185,1860,261.82,126.78,87.17,10.48,35,28,4.09,2.13,1.59
09/02/2016,591.54,2216,1886,266.03,128.61,88.46,8.91,31,26,4.21,1.83,1.29
10/02/2016,602.39,2252,1916,270.31,131.53,90.84,10.85,36,30,4.28,2.92,2.38
11/02/2016,611.54,2286,1945,274.2,133.37,92.12,9.15,34,29,3.89,1.84,1.28
12/02/2016,623.94,2324,1975,278.85,136.23,94.47,12.4,38,30,4.65,2.86,2.35
13/02/2016,633.06,2357,2003,282.97,138.08,95.78,9.12,33,28,4.12,1.85,1.31
14/02/2016,641.6,2401,2041,286.15,139.32,96.56,8.54,44,38,3.18,1.24,0.78
15/02/2016,652.14,2432,2069,290.74,141.72,98.42,10.54,31,28,4.59,2.4,1.86
16/02/2016,663.6,2464,2097,295.94,145.02,101.15,11.46,32,28,5.2,3.3,2.73
17/02/2016,676.73,2499,2126,301.85,147.78,103.47,13.13,35,29,5.91,2.76,2.32
18/02/2016,685.47,2532,2156,305.7,149.29,104.42,8.74,33,30,3.85,1.51,0.95
19/02/2016,698.38,2570,2187,310.25,153.32,108.02,12.91,38,31,4.55,4.03,3.6
20/02/2016,710.18,2611,2221,314.23,155.58,109.76,11.8,41,34,3.98,2.26,1.74
21/02/2016,719.22,2651,2255,317.73,156.96,110.7,9.04,40,34,3.5,1.38,0.94
22/02/2016,729.1,2683,2283,321.9,158.84,112.06,9.88,32,28,4.17,1.88,1.36
23/02/2016,738.9,2715,2309,326.17,160.9,113.62,9.8,32,26,4.27,2.06,1.56
24/02/2016,751.57,2750,2337,331.46,164.06,116.27,12.67,35,28,5.29,3.16,2.65
25/02/2016,764.62,2786,2367,337.39,167.06,118.8,13.05,36,30,5.93,3,2.53
26/02/2016,776.36,2826,2400,341.44,169.4,120.6,11.74,40,33,4.05,2.34,1.8
27/02/2016,787.53,2861,2429,345.86,171.93,122.63,11.17,35,29,4.42,2.53,2.03
28/02/2016,796.96,2893,2456,350.28,173.79,123.97,9.43,32,27,4.42,1.86,1.34
29/02/2016,807.87,2927,2485,354.95,176.29,125.99,10.91,34,29,4.67,2.5,2.02
01/03/2016,820.51,2965,2515,359.76,180.33,129.76,12.64,38,30,4.81,4.04,3.77
02/03/2016,830.39,3000,2544,364.01,182.08,130.96,9.88,35,29,4.25,1.75,1.2
03/03/2016,841.08,3036,2574,368.14,184.48,132.84,10.69,36,30,4.13,2.4,1.88
04/03/2016,851.94,3072,2603,372.64,186.68,134.55,10.86,36,29,4.5,2.2,1.71
05/03/2016,865.99,3108,2631,377.9,190.49,137.86,14.05,36,28,5.26,3.81,3.31
06/03/2016,875.87,3142,2659,382.19,192.25,139.09,9.88,34,28,4.29,1.76,1.23
07/03/2016,886.43,3179,2689,386.33,194.17,140.48,10.56,37,30,4.14,1.92,1.39
08/03/2016,900.63,3215,2717,392.27,197.91,143.74,14.2,36,28,5.94,3.74,3.26
09/03/2016,911.19,3253,2750,396.67,199.86,145.2,10.56,38,33,4.4,1.95,1.46
10/03/2016,921.17,3286,2777,400.88,201.67,146.44,9.98,33,27,4.21,1.81,1.24
11/03/2016,930.77,3320,2806,405.32,203.5,147.79,9.6,34,29,4.44,1.83,1.35
12/03/2016,945.9,3356,2834,411.66,206.34,150.18,15.13,36,28,6.34,2.84,2.39
13/03/2016,959.57,3391,2862,417.18,210.17,153.6,13.67,35,28,5.52,3.83,3.42
14/03/2016,976.24,3427,2889,424.03,214.21,157.35,16.67,36,27,6.85,4.04,3.75
15/03/2016,993.48,3464,2916,431.37,217.63,160.31,17.24,37,27,7.34,3.42,2.96
16/03/2016,1003,3502,2948,435.29,219.15,161.37,9.52,38,32,3.92,1.52,1.06
17/03/2016,1016,3536,2976,440.16,222.55,164.27,13,34,28,4.87,3.4,2.9
18/03/2016,1032,3571,3002,447.6,226.28,167.61,16,35,26,7.44,3.73,3.34
19/03/2016,1041,3602,3030,451.8,227.86,168.63,9,31,28,4.2,1.58,1.02
20/03/2016,1051,3632,3055,456.42,229.77,170,10,30,25,4.62,1.91,1.37
21/03/2016,1061,3666,3083,461,231.77,171.46,10,34,28,4.58,2,1.46
22/03/2016,1074,3701,3111,465.83,234.74,173.95,13,35,28,4.83,2.97,2.49
23/03/2016,1091,3737,3138,473.1,238.6,177.43,17,36,27,7.27,3.86,3.48
24/03/2016,1102,3761,3156,478.08,240.95,179.29,11,24,18,4.98,2.35,1.86
25/03/2016,1112,3790,3179,482.75,243.02,180.86,10,29,23,4.67,2.07,1.57
26/03/2016,1128,3821,3202,489.73,246.96,184.45,16,31,23,6.98,3.94,3.59
27/03/2016,1138,3849,3226,494.15,248.59,185.52,10,28,24,4.42,1.63,1.07
28/03/2016,1151,3879,3248,500.17,252.56,189.09,13,30,22,6.02,3.97,3.57
29/03/2016,1166,3909,3270,506.5,256.77,193.06,15,30,22,6.33,4.21,3.97
30/03/2016,1180,3942,3294,512.41,260.03,195.78,14,33,24,5.91,3.26,2.72
31/03/2016,1194,3973,3318,517.82,263.83,199.13,14,31,24,5.41,3.8,3.35
01/04/2016,1208,4004,3340,524.31,267.73,202.61,14,31,22,6.49,3.9,3.48
02/04/2016,1223,4036,3363,530.1,272.14,206.75,15,32,23,5.79,4.41,4.14
03/04/2016,1237,4062,3383,536.64,276.08,210.4,14,26,20,6.54,3.94,3.65
04/04/2016,1250,4086,3401,542.72,278.96,212.82,13,24,18,6.08,2.88,2.42
05/04/2016,1261,4113,3421,547.81,281.53,214.91,11,27,20,5.09,2.57,2.09
06/04/2016,1275,4146,3446,553.39,284.74,217.56,14,33,25,5.58,3.21,2.65
07/04/2016,1290,4175,3466,559.89,288.69,221.17,15,29,20,6.5,3.95,3.61
08/04/2016,1301,4206,3491,564.75,291.01,223.03,11,31,25,4.86,2.32,1.86
09/04/2016,1314,4238,3515,569.77,294.23,225.72,13,32,24,5.02,3.22,2.69
10/04/2016,1327,4267,3537,575.35,298.09,229.19,13,29,22,5.58,3.86,3.47
11/04/2016,1343,4298,3560,581.95,302.19,233.08,16,31,23,6.6,4.1,3.89
12/04/2016,1355,4326,3580,587.08,304.89,235.33,12,28,20,5.13,2.7,2.25
13/04/2016,1372,4355,3601,595.38,308.51,238.47,17,29,21,8.3,3.62,3.14
14/04/2016,1388,4382,3621,602.84,312.22,241.81,16,27,20,7.46,3.71,3.34
15/04/2016,1401,4407,3638,608.88,316.09,245.32,13,25,17,6.04,3.87,3.51
16/04/2016,1412,4432,3658,613.71,318.09,246.83,11,25,20,4.83,2,1.51
17/04/2016,1425,4460,3678,619.49,322.13,250.62,13,28,20,5.78,4.04,3.79
18/04/2016,1440,4493,3703,625.7,325.56,253.52,15,33,25,6.21,3.43,2.9
19/04/2016,1451,4523,3726,630.66,328.33,255.82,11,30,23,4.96,2.77,2.3
20/04/2016,1469,4551,3746,639.48,331.73,258.8,18,28,20,8.82,3.4,2.98
21/04/2016,1489,4582,3766,649.33,334.84,261.51,20,31,20,9.85,3.11,2.71
22/04/2016,1503,4611,3788,655.16,337.36,263.89,14,29,22,5.83,2.52,2.38
23/04/2016,1508,4640,3812,655.8,338.26,264.76,5,29,24,0.64,0.9,0.87
24/04/2016,1519,4672,3837,658.99,341.54,267.95,11,32,25,3.19,3.28,3.19
25/04/2016,1528,4702,3860,660.84,344.39,270.72,9,30,23,1.85,2.85,2.77
26/04/2016,1536,4732,3886,663.34,347.06,273.36,8,30,26,2.5,2.67,2.64
27/04/2016,1550,4762,3910,669.81,350.37,276.61,14,30,24,6.47,3.31,3.25
28/04/2016,1563,4797,3937,675.63,353.34,279.54,13,35,27,5.82,2.97,2.93
29/04/2016,1574,4827,3960,678.59,356.62,282.75,11,30,23,2.96,3.28,3.21
30/04/2016,1588,4857,3982,684.41,360.45,286.51,14,30,22,5.82,3.83,3.76
01/05/2016,1602,4888,4007,689.83,364.21,290.19,14,31,25,5.42,3.76,3.68
02/05/2016,1616,4918,4030,695.27,367.99,293.91,14,30,23,5.44,3.78,3.72
03/05/2016,1627,4942,4049,698.36,370.72,296.59,11,24,19,3.09,2.73,2.68
04/05/2016,1638,4971,4072,702.98,374.39,300.22,11,29,23,4.62,3.67,3.63
05/05/2016,1656,5006,4097,710.8,377.49,303.29,18,35,25,7.82,3.1,3.07
06/05/2016,1673,5035,4115,718.07,380.95,306.69,17,29,18,7.27,3.46,3.4
07/05/2016,1686,5048,4120,723.5,383.47,309.18,13,13,5,5.43,2.52,2.49
08/05/2016,1699,5058,4122,729.52,385.59,311.3,13,10,2,6.02,2.12,2.12
09/05/2016,1714,5070,4127,737.83,387.24,312.91,15,12,5,8.31,1.65,1.61
10/05/2016,1723,5079,4131,739.77,389.81,315.43,9,9,4,1.94,2.57,2.52
11/05/2016,1729,5088,4139,740.87,391.87,317.47,6,9,8,1.1,2.06,2.04
12/05/2016,1736,5106,4152,742.26,395.04,320.54,7,18,13,1.39,3.17,3.07
13/05/2016,1750,5107,4153,753.61,397.13,322.62,14,1,1,11.35,2.09,2.08
14/05/2016,1767,5108,4154,768.53,398.48,323.96,17,1,1,14.92,1.35,1.34
15/05/2016,1783,5111,4156,781.58,400.77,326.24,16,3,2,13.05,2.29,2.28
16/05/2016,1799,5115,4160,795.19,401.81,327.26,16,4,4,13.61,1.04,1.02
17/05/2016,1815,5118,4162,808.28,403.11,328.55,16,3,2,13.09,1.3,1.29
18/05/2016,1826,5122,4165,815.73,405.15,330.55,11,4,3,7.45,2.04,2
19/05/2016,1831,5133,4176,819,407.37,332.7,5,11,11,3.27,2.22,2.15
20/05/2016,1842,5148,4185,823.09,410.5,335.68,11,15,9,4.09,3.13,2.98
21/05/2016,1854,5162,4191,826.75,413.91,339.03,12,14,6,3.66,3.41,3.35
22/05/2016,1861,5178,4203,827.71,416,341.08,7,16,12,0.96,2.09,2.05
23/05/2016,1872,5188,4207,831.12,418.71,343.7,11,10,4,3.41,2.71,2.62
24/05/2016,1889,5204,4214,838.45,421.66,346.57,17,16,7,7.33,2.95,2.87
25/05/2016,1902,5215,4217,843.3,425.07,349.9,13,11,3,4.85,3.41,3.33
26/05/2016,1908,5228,4227,844.95,427.61,352.39,6,13,10,1.65,2.54,2.49
27/05/2016,1926,5247,4237,852.08,431.11,355.8,18,19,10,7.13,3.5,3.41
28/05/2016,1940,5257,4239,858.48,434.3,358.88,14,10,2,6.4,3.19,3.08
29/05/2016,1956,5271,4243,864.59,437.68,362.16,16,14,4,6.11,3.38,3.28
30/05/2016,1973,5283,4246,872.89,439.99,364.41,17,12,3,8.3,2.31,2.25
31/05/2016,1979,5295,4255,874.29,441.49,365.86,6,12,9,1.4,1.5,1.45
01/06/2016,1983,5302,4263,874.89,441.75,366.1,4,7,8,0.6,0.26,0.24
02/06/2016,1987,5318,4278,875.54,442.02,366.36,4,16,15,0.65,0.27,0.26
03/06/2016,1995,5335,4290,877.71,444.58,368.87,8,17,12,2.17,2.56,2.51
04/06/2016,2002,5349,4299,878.93,446.99,371.19,7,14,9,1.22,2.41,2.32
05/06/2016,2009,5360,4307,880.31,449.73,373.9,7,11,8,1.38,2.74,2.71
06/06/2016,2027,5372,4310,889.35,451.52,375.62,18,12,3,9.04,1.79,1.72
07/06/2016,2044,5384,4313,897.41,453.35,377.4,17,12,3,8.06,1.83,1.78
08/06/2016,2055,5393,4315,901.67,455.72,379.68,11,9,2,4.26,2.37,2.28
09/06/2016,2068,5400,4316,907.18,457.46,381.36,13,7,1,5.51,1.74,1.68
10/06/2016,2083,5401,4317,919.81,458.96,382.83,15,1,1,12.63,1.5,1.47
11/06/2016,2095,5401,4317,929.43,460.71,384.58,12,0,0,9.62,1.75,1.75
12/06/2016,2105,5402,4317,937.17,462.75,386.62,10,1,0,7.74,2.04,2.04
13/06/2016,2116,5403,4318,945.1,464.77,388.63,11,1,1,7.93,2.02,2.01
14/06/2016,2123,5405,4319,949.46,467.68,391.5,7,2,1,4.36,2.91,2.87
15/06/2016,2133,5414,4326,954.58,470.2,393.95,10,9,7,5.12,2.52,2.45
16/06/2016,2146,5424,4329,959.45,474.01,397.69,13,10,3,4.87,3.81,3.74
17/06/2016,2153,5436,4336,960.7,475.77,399.43,7,12,7,1.25,1.76,1.74
18/06/2016,2166,5448,4342,965.93,478.96,402.59,13,12,6,5.23,3.19,3.16
19/06/2016,2173,5459,4348,967.49,480.82,404.38,7,11,6,1.56,1.86,1.79
20/06/2016,2182,5470,4355,970.35,483.88,407.4,9,11,7,2.86,3.06,3.02
21/06/2016,2192,5481,4360,973.02,487.53,411,10,11,5,2.67,3.65,3.6
22/06/2016,2202,5490,4363,975.91,491,414.41,10,9,3,2.89,3.47,3.41
23/06/2016,2211,5499,4366,978.05,494.51,417.87,9,9,3,2.14,3.51,3.46
24/06/2016,2217,5505,4371,978.84,495.81,419.12,6,6,5,0.79,1.3,1.25
25/06/2016,2231,5515,4374,984.55,499.93,423.16,14,10,3,5.71,4.12,4.04
26/06/2016,2244,5526,4377,989.07,503.37,426.5,13,11,3,4.52,3.44,3.34
27/06/2016,2254,5537,4382,992.75,506.78,429.81,10,11,5,3.68,3.41,3.31
28/06/2016,2269,5548,4385,998.35,510.28,433.26,15,11,3,5.6,3.5,3.45
29/06/2016,2279,5559,4390,1001,513.14,436.05,10,11,5,2.65,2.86,2.79
30/06/2016,2284,5565,4396,1003,514.01,436.91,5,6,6,2,0.87,0.86
01/07/2016,2296,5579,4402,1007,516.69,439.49,12,14,6,4,2.68,2.58
02/07/2016,2304,5587,4406,1008,519.88,442.64,8,8,4,1,3.19,3.15
03/07/2016,2320,5602,4413,1015,523.29,445.87,16,15,7,7,3.41,3.23
04/07/2016,2333,5612,4416,1019,526.6,449.09,13,10,3,4,3.31,3.22
05/07/2016,2342,5622,4420,1020,529.59,452.01,9,10,4,1,2.99,2.92
06/07/2016,2357,5631,4424,1028,533.55,455.91,15,9,4,8,3.96,3.9
07/07/2016,2372,5641,4426,1034,536.27,458.57,15,10,2,6,2.72,2.66
08/07/2016,2386,5651,4428,1039,539.68,461.9,14,10,2,5,3.41,3.33
09/07/2016,2397,5662,4431,1042,542.06,464.25,11,11,3,3,2.38,2.35
10/07/2016,2407,5672,4434,1045,545.51,467.63,10,10,3,3,3.45,3.38
11/07/2016,2419,5683,4438,1050,549.37,471.37,12,11,4,5,3.86,3.74
12/07/2016,2428,5690,4440,1052,552.63,474.56,9,7,2,2,3.26,3.19
13/07/2016,2438,5703,4446,1054,555.57,477.3,10,13,6,2,2.94,2.74
14/07/2016,2447,5712,4450,1057,558.98,480.69,9,9,4,3,3.41,3.39
15/07/2016,2459,5722,4454,1063,562.72,484.34,12,10,4,6,3.74,3.65
16/07/2016,2466,5730,4458,1065,564.74,486.34,7,8,4,2,2.02,2
17/07/2016,2478,5738,4460,1070,568.11,489.64,12,8,2,5,3.37,3.3
18/07/2016,2489,5748,4462,1075,571.11,492.54,11,10,2,5,3,2.9
19/07/2016,2505,5757,4463,1084,573.26,494.65,16,9,1,9,2.15,2.11
20/07/2016,2519,5765,4464,1092,574.77,496.11,14,8,1,8,1.51,1.46
21/07/2016,2533,5775,4464,1099,577.25,498.54,14,10,0,7,2.48,2.43
22/07/2016,2543,5782,4466,1104,580.56,501.83,10,7,2,5,3.31,3.29
23/07/2016,2551,5787,4468,1105,583.34,504.58,8,5,2,1,2.78,2.75
24/07/2016,2564,5797,4470,1112,586.63,507.79,13,10,2,7,3.29,3.21
25/07/2016,2572,5805,4473,1115,590.01,511.12,8,8,3,3,3.38,3.33
26/07/2016,2586,5815,4475,1121,593.33,514.4,14,10,2,6,3.32,3.28
27/07/2016,2595,5824,4478,1124,596.14,517.2,9,9,3,3,2.81,2.8
28/07/2016,2606,5832,4479,1129,598.7,519.72,11,8,1,5,2.56,2.52
29/07/2016,2614,5839,4481,1132,600.87,521.9,8,7,2,3,2.17,2.18
30/07/2016,2621,5847,4484,1134,603.61,524.58,7,8,3,2,2.74,2.68
31/07/2016,2630,5859,4491,1136,606.25,527.16,9,12,7,2,2.64,2.58
01/08/2016,2639,5872,4497,1139,609.36,530.22,9,13,6,3,3.11,3.06
02/08/2016,2645,5879,4501,1140,611.92,532.81,6,7,4,1,2.56,2.59
03/08/2016,2650,5887,4507,1142,613.57,534.43,5,8,6,2,1.65,1.62
04/08/2016,2662,5896,4510,1148,617.48,538.28,12,9,3,6,3.91,3.85
05/08/2016,2671,5905,4513,1151,620.97,541.72,9,9,3,3,3.49,3.44
06/08/2016,2683,5916,4518,1156,623.45,544.09,12,11,5,5,2.48,2.37
07/08/2016,2696,5925,4520,1163,625.68,546.26,13,9,2,7,2.23,2.17
08/08/2016,2709,5934,4522,1169,629.03,549.48,13,9,2,6,3.35,3.22
09/08/2016,2719,5943,4525,1173,632.41,552.77,10,9,3,4,3.38,3.29
10/08/2016,2729,5953,4528,1177,636.19,556.5,10,10,3,4,3.78,3.73
11/08/2016,2739,5963,4532,1180,638.9,559.13,10,10,4,3,2.71,2.63
12/08/2016,2749,5972,4534,1184,642.36,562.53,10,9,2,4,3.46,3.4
13/08/2016,2765,5981,4535,1193,644.03,564.16,16,9,1,9,1.67,1.63
14/08/2016,2775,5988,4538,1197,646.64,566.74,10,7,3,4,2.61,2.58
15/08/2016,2786,5999,4541,1200,650.1,570.12,11,11,3,3,3.46,3.38
16/08/2016,2801,6010,4544,1208,652,571.98,15,11,3,8,1.9,1.86
17/08/2016,2813,6019,4547,1214,654.06,573.99,12,9,3,6,2.06,2.01
18/08/2016,2826,6030,4549,1219,657.38,577.17,13,11,2,5,3.32,3.18
19/08/2016,2835,6036,4552,1221,659.31,579.07,9,6,3,2,1.93,1.9
20/08/2016,2839,6044,4559,1222,660.76,580.52,4,8,7,1,1.45,1.45
21/08/2016,2847,6055,4564,1223,664.46,584.09,8,11,5,1,3.7,3.57
22/08/2016,2855,6056,4564,1230,667.4,587.01,8,1,0,7,2.94,2.92
23/08/2016,2865,6057,4565,1238,669.18,588.78,10,1,1,8,1.78,1.77
24/08/2016,2878,6057,4565,1249,670.72,590.29,13,0,0,11,1.54,1.51
25/08/2016,2888,6057,4566,1258,672.95,592.48,10,0,1,9,2.23,2.19
26/08/2016,2895,6062,4567,1260,675.69,595.21,7,5,1,2,2.74,2.73
27/08/2016,2909,6072,4569,1267,677.8,597.25,14,10,2,7,2.11,2.04
28/08/2016,2916,6078,4571,1268,680.58,599.97,7,6,2,1,2.78,2.72
29/08/2016,2921,6085,4576,1268,682.36,601.74,5,7,5,0,1.78,1.77
30/08/2016,2933,6093,4578,1273,685.12,604.44,12,8,2,5,2.76,2.7
31/08/2016,2945,6102,4580,1279,687.21,606.46,12,9,2,6,2.09,2.02
01/09/2016,2954,6110,4584,1282,690.88,610.04,9,8,4,3,3.67,3.58
02/09/2016,2966,6120,4587,1287,693.12,612.22,12,10,3,5,2.24,2.18
03/09/2016,2969,6128,4595,1287,693.58,612.67,3,8,8,0,0.46,0.45
04/09/2016,2973,6135,4600,1288,695.6,614.66,4,7,5,1,2.02,1.99
05/09/2016,2979,6142,4606,1288,697.7,616.74,6,7,6,0,2.1,2.08
06/09/2016,2983,6148,4611,1289,699.5,618.53,4,6,5,1,1.8,1.79
07/09/2016,2987,6152,4614,1289,700.56,619.56,4,4,3,0,1.06,1.03
08/09/2016,2996,6160,4617,1293,702.42,621.4,9,8,3,4,1.86,1.84
09/09/2016,3007,6169,4620,1298,705.61,624.5,11,9,3,5,3.19,3.1
10/09/2016,3014,6176,4624,1300,709.51,628.3,7,7,4,2,3.9,3.8
11/09/2016,3015,6179,4627,1301,709.78,628.57,1,3,3,1,0.27,0.27
12/09/2016,3026,6193,4632,1304,712.85,631.48,11,14,5,3,3.07,2.91
13/09/2016,3033,6202,4637,1306,714.77,633.38,7,9,5,2,1.92,1.9
14/09/2016,3042,6210,4638,1310,716.35,634.92,9,8,1,4,1.58,1.54
15/09/2016,3052,6217,4639,1314,718.98,637.53,10,7,1,4,2.63,2.61
16/09/2016,3062,6225,4641,1317,721.11,639.56,10,8,2,3,2.13,2.03
17/09/2016,3065,6228,4644,1317,722.51,640.92,3,3,3,0,1.4,1.36
18/09/2016,3068,6234,4650,1317,723.29,641.67,3,6,6,0,0.78,0.75
19/09/2016,3073,6240,4654,1318,725.74,644.1,5,6,4,1,2.45,2.43
20/09/2016,3076,6248,4661,1318,728.37,646.72,3,8,7,0,2.63,2.62
21/09/2016,3079,6251,4663,1318,729.2,647.53,3,3,2,0,0.83,0.81
22/09/2016,3086,6262,4669,1320,731.94,650.15,7,11,6,2,2.74,2.62
23/09/2016,3094,6270,4674,1322,734.54,652.73,8,8,5,2,2.6,2.58
24/09/2016,3103,6282,4681,1326,737.57,655.68,9,12,7,4,3.03,2.95
25/09/2016,3109,6291,4686,1326,740.02,658.09,6,9,5,0,2.45,2.41
26/09/2016,3120,6300,4688,1331,742.98,660.98,11,9,2,5,2.96,2.89
27/09/2016,3125,6307,4694,1331,745.06,663.06,5,7,6,0,2.08,2.08
28/09/2016,3129,6319,4704,1331,745.99,663.98,4,12,10,0,0.93,0.92
29/09/2016,3134,6329,4712,1332,748.9,666.85,5,10,8,1,2.91,2.87
30/09/2016,3141,6338,4716,1334,751.82,669.71,7,9,4,2,2.92,2.86
01/10/2016,3149,6351,4723,1336,754.44,672.21,8,13,7,2,2.62,2.5
02/10/2016,3156,6364,4732,1338,756.71,674.43,7,13,9,2,2.27,2.22
03/10/2016,3165,6380,4743,1340,759.62,677.27,9,16,11,2,2.91,2.84
04/10/2016,3176,6396,4752,1345,761.65,679.22,11,16,9,5,2.03,1.95
05/10/2016,3184,6411,4761,1348,763.91,681.39,8,15,9,3,2.26,2.17
06/10/2016,3194,6424,4768,1353,765.79,683.23,10,13,7,5,1.88,1.84
07/10/2016,3201,6436,4777,1355,768.5,685.88,7,12,9,2,2.71,2.65
08/10/2016,3203,6448,4788,1355,769.47,686.85,2,12,11,0,0.97,0.97
09/10/2016,3208,6459,4795,1355,771.76,689.12,5,11,7,0,2.29,2.27
10/10/2016,3213,6474,4807,1357,773.63,690.95,5,15,12,2,1.87,1.83
11/10/2016,3220,6494,4822,1359,776.23,693.46,7,20,15,2,2.6,2.51
12/10/2016,3227,6516,4838,1360,778.63,695.77,7,22,16,1,2.4,2.31
13/10/2016,3232,6533,4850,1361,781.13,698.21,5,17,12,1,2.5,2.44
14/10/2016,3238,6548,4862,1362,783.77,700.8,6,15,12,1,2.64,2.59
15/10/2016,3242,6567,4878,1362,784.96,701.99,4,19,16,0,1.19,1.19
16/10/2016,3247,6583,4890,1364,786.91,703.86,5,16,12,2,1.95,1.87
17/10/2016,3254,6598,4901,1365,789.05,705.92,7,15,11,1,2.14,2.06
18/10/2016,3260,6614,4913,1367,791.12,707.94,6,16,12,2,2.07,2.02
19/10/2016,3267,6634,4926,1369,793.57,710.28,7,20,13,2,2.45,2.34
20/10/2016,3271,6650,4939,1369,795.02,711.7,4,16,13,0,1.45,1.42
21/10/2016,3275,6665,4951,1369,796.91,713.54,4,15,12,0,1.89,1.84
22/10/2016,3279,6681,4964,1370,798.91,715.53,4,16,13,1,2,1.99
23/10/2016,3283,6695,4976,1370,800.48,717.08,4,14,12,0,1.57,1.55
24/10/2016,3288,6726,5003,1371,802.57,719.06,5,31,27,1,2.09,1.98
25/10/2016,3291,6742,5019,1371,803.2,719.67,3,16,16,0,0.63,0.61
26/10/2016,3294,6757,5032,1371,804.07,720.53,3,15,13,0,0.87,0.86
27/10/2016,3299,6776,5048,1371,805.78,722.18,5,19,16,0,1.71,1.65
28/10/2016,3304,6793,5062,1373,807.13,723.51,5,17,14,2,1.35,1.33
29/10/2016,3307,6815,5082,1373,807.91,724.28,3,22,20,0,0.78,0.77
30/10/2016,3307,6835,5101,1373,807.97,724.34,0,20,19,0,0.06,0.06
31/10/2016,3307,6857,5123,1373,807.98,724.34,0,22,22,0,0.01,0
01/11/2016,3314,6876,5136,1374,810.15,726.45,7,19,13,1,2.17,2.11
02/11/2016,3314,6889,5149,1374,810.2,726.5,0,13,13,0,0.05,0.05